Location: Krakow
(50.0830°N, 19.9170°E)
Time: 08:47:52
(UTC+01:00)

Vanguard 1 Rocket - Visible Passes

Search period start: 14 March 2026 00:00
Search period end: 24 March 2026 00:00
Orbit: 653 x 4214 km, 34.3° (Epoch: 13 March)

Date Brightness Start Highest point End Pass type
(mag) Time Alt. Az. Time Alt. Az. Time Alt. Az.
21 Mar 9.7 04:44:01 10° SSW 04:47:11 13° S 04:49:50 10° SE visible
22 Mar 10.0 03:32:10 10° S 03:35:04 12° SSE 03:37:32 10° SE visible
23 Mar 9.5 04:42:45 10° SSW 04:47:30 17° S 04:51:06 10° SE visible
